Time,TemperatureF,DewpointF,PressureIn,WindDirection,WindDirectionDegrees,WindSpeedMPH,WindSpeedGustMPH,Humidity,HourlyPrecipIn,Conditions,Clouds,dailyrainin,SoftwareType,DateUTC
2013-10-30 00:01:00,41.4,40.6,30.00,NE,53,0.0,4.0,97,0.00,,,0.00,WUHU216DAVISVP2,2013-10-30 05:01:00,
2013-10-30 00:06:00,41.4,40.6,30.00,NE,56,0.0,4.0,97,0.00,,,0.00,WUHU216DAVISVP2,2013-10-30 05:06:00,
2013-10-30 00:11:00,41.5,40.7,30.00,ENE,68,0.0,4.0,97,0.00,,,0.00,WUHU216DAVISVP2,2013-10-30 05:11:00,
2013-10-30 00:16:00,41.5,40.7,30.00,ENE,63,0.0,4.0,97,0.00,,,0.00,WUHU216DAVISVP2,2013-10-30 05:16:00,
2013-10-30 00:21:00,41.5,40.7,30.00,NNE,26,1.0,3.0,97,0.00,,,0.00,WUHU216DAVISVP2,2013-10-30 05:21:00,
2013-10-30 00:26:00,41.5,40.7,30.00,NNE,25,0.0,1.0,97,0.00,,,0.00,WUHU216DAVISVP2,2013-10-30 05:26:00,
2013-10-30 00:31:00,41.5,40.7,30.00,NW,326,0.0,1.0,97,0.00,,,0.00,WUHU216DAVISVP2,2013-10-30 05:31:00,
2013-10-30 00:36:00,41.5,40.7,30.00,NW,314,0.0,1.0,97,0.00,,,0.00,WUHU216DAVISVP2,2013-10-30 05:36:00,
2013-10-30 00:41:00,41.5,40.7,30.00,NE,49,0.0,1.0,97,0.00,,,0.00,WUHU216DAVISVP2,2013-10-30 05:41:00,
2013-10-30 00:46:00,41.4,40.6,30.00,NNE,27,0.0,1.0,97,0.00,,,0.00,WUHU216DAVISVP2,2013-10-30 05:46:00,
2013-10-30 00:51:00,41.4,40.6,30.00,NNE,27,0.0,1.0,97,0.00,,,0.00,WUHU216DAVISVP2,2013-10-30 05:51:00,
2013-10-30 00:56:00,41.4,40.6,30.00,NE,56,0.0,1.0,97,0.00,,,0.00,WUHU216DAVISVP2,2013-10-30 05:56:00,
2013-10-30 01:01:00,41.4,40.6,29.99,NE,34,1.0,1.0,97,0.00,,,0.00,WUHU216DAVISVP2,2013-10-30 06:01:00,
2013-10-30 01:06:00,41.4,40.6,29.99,ENE,61,0.0,1.0,97,0.00,,,0.00,WUHU216DAVISVP2,2013-10-30 06:06:00,
2013-10-30 01:11:00,41.4,40.6,29.99,NE,43,1.0,1.0,97,0.00,,,0.00,WUHU216DAVISVP2,2013-10-30 06:11:00,
2013-10-30 01:16:00,41.4,40.6,29.98,East,89,0.0,1.0,97,0.00,,,0.00,WUHU216DAVISVP2,2013-10-30 06:16:00,
2013-10-30 01:21:00,41.4,40.6,29.98,East,89,0.0,3.0,97,0.00,,,0.00,WUHU216DAVISVP2,2013-10-30 06:21:00,
2013-10-30 01:26:00,41.3,40.5,29.98,ESE,107,0.0,3.0,97,0.00,,,0.00,WUHU216DAVISVP2,2013-10-30 06:26:00,
2013-10-30 01:31:00,41.3,40.5,29.98,ENE,73,0.0,3.0,97,0.00,,,0.00,WUHU216DAVISVP2,2013-10-30 06:31:00,
2013-10-30 01:36:00,41.3,40.5,29.98,ENE,73,0.0,3.0,97,0.00,,,0.00,WUHU216DAVISVP2,2013-10-30 06:36:00,
2013-10-30 01:41:00,41.3,40.5,29.98,NE,38,0.0,3.0,97,0.00,,,0.00,WUHU216DAVISVP2,2013-10-30 06:41:00,
2013-10-30 01:46:00,41.3,40.5,29.98,NE,42,0.0,3.0,97,0.00,,,0.00,WUHU216DAVISVP2,2013-10-30 06:46:00,
2013-10-30 01:51:00,41.3,40.5,29.98,NE,41,0.0,1.0,97,0.00,,,0.00,WUHU216DAVISVP2,2013-10-30 06:51:00,
2013-10-30 01:56:00,41.3,40.5,29.98,ENE,66,0.0,1.0,97,0.00,,,0.00,WUHU216DAVISVP2,2013-10-30 06:56:00,
2013-10-30 02:02:00,41.3,40.5,29.98,ENE,59,0.0,1.0,97,0.00,,,0.00,WUHU216DAVISVP2,2013-10-30 07:02:00,
2013-10-30 02:07:00,41.3,40.5,29.98,ENE,59,0.0,1.0,97,0.00,,,0.00,WUHU216DAVISVP2,2013-10-30 07:07:00,
2013-10-30 02:12:00,41.4,40.6,29.98,ENE,60,0.0,1.0,97,0.00,,,0.00,WUHU216DAVISVP2,2013-10-30 07:12:00,
2013-10-30 02:17:00,41.3,40.5,29.98,ENE,61,0.0,1.0,97,0.00,,,0.00,WUHU216DAVISVP2,2013-10-30 07:17:00,
2013-10-30 02:22:00,41.3,40.5,29.97,ENE,68,0.0,1.0,97,0.00,,,0.00,WUHU216DAVISVP2,2013-10-30 07:22:00,
2013-10-30 02:27:00,41.3,40.5,29.97,ESE,110,0.0,1.0,97,0.00,,,0.00,WUHU216DAVISVP2,2013-10-30 07:27:00,
2013-10-30 02:32:00,41.3,40.5,29.97,East,99,0.0,1.0,97,0.00,,,0.00,WUHU216DAVISVP2,2013-10-30 07:32:00,
2013-10-30 02:37:00,41.3,40.5,29.97,East,99,0.0,0.0,97,0.00,,,0.00,WUHU216DAVISVP2,2013-10-30 07:37:00,
2013-10-30 02:42:00,41.3,40.5,29.97,East,100,0.0,0.0,97,0.00,,,0.00,WUHU216DAVISVP2,2013-10-30 07:42:00,
2013-10-30 02:47:00,41.3,40.5,29.97,East,101,0.0,0.0,97,0.00,,,0.00,WUHU216DAVISVP2,2013-10-30 07:47:00,
2013-10-30 02:52:00,41.2,40.4,29.97,ENE,63,0.0,0.0,97,0.00,,,0.00,WUHU216DAVISVP2,2013-10-30 07:52:00,
2013-10-30 02:57:00,41.2,40.4,29.97,ENE,63,0.0,0.0,97,0.00,,,0.00,WUHU216DAVISVP2,2013-10-30 07:57:00,
2013-10-30 03:02:00,41.2,40.4,29.96,ENE,63,0.0,0.0,97,0.00,,,0.00,WUHU216DAVISVP2,2013-10-30 08:02:00,
2013-10-30 03:07:00,41.2,40.4,29.96,NNW,338,0.0,0.0,97,0.00,,,0.00,WUHU216DAVISVP2,2013-10-30 08:07:00,
2013-10-30 03:12:00,41.2,40.4,29.96,NNW,338,0.0,0.0,97,0.00,,,0.00,WUHU216DAVISVP2,2013-10-30 08:12:00,
2013-10-30 03:17:00,41.2,40.4,29.96,NNW,338,0.0,0.0,97,0.00,,,0.00,WUHU216DAVISVP2,2013-10-30 08:17:00,
2013-10-30 03:22:00,41.2,40.4,29.96,NNW,338,0.0,0.0,97,0.00,,,0.00,WUHU216DAVISVP2,2013-10-30 08:22:00,
2013-10-30 03:27:00,41.3,40.5,29.96,NNW,338,0.0,0.0,97,0.00,,,0.00,WUHU216DAVISVP2,2013-10-30 08:27:00,
2013-10-30 03:32:00,41.3,40.5,29.96,NNW,338,0.0,0.0,97,0.00,,,0.00,WUHU216DAVISVP2,2013-10-30 08:32:00,
2013-10-30 03:37:00,41.2,40.4,29.96,NNW,338,0.0,0.0,97,0.00,,,0.00,WUHU216DAVISVP2,2013-10-30 08:37:00,
2013-10-30 03:42:00,41.3,40.5,29.95,NNW,338,0.0,0.0,97,0.00,,,0.00,WUHU216DAVISVP2,2013-10-30 08:42:00,
2013-10-30 03:47:00,41.3,40.5,29.95,NNW,338,0.0,0.0,97,0.00,,,0.00,WUHU216DAVISVP2,2013-10-30 08:47:00,
2013-10-30 03:52:00,41.3,40.5,29.95,NNW,338,0.0,0.0,97,0.00,,,0.00,WUHU216DAVISVP2,2013-10-30 08:52:00,
2013-10-30 03:57:00,41.3,40.5,29.95,NNW,338,0.0,0.0,97,0.00,,,0.00,WUHU216DAVISVP2,2013-10-30 08:57:00,
2013-10-30 04:02:00,41.3,40.5,29.95,NNW,338,0.0,0.0,97,0.00,,,0.00,WUHU216DAVISVP2,2013-10-30 09:02:00,
2013-10-30 04:07:00,41.3,40.5,29.95,NNW,338,0.0,0.0,97,0.00,,,0.00,WUHU216DAVISVP2,2013-10-30 09:07:00,
2013-10-30 04:12:00,41.3,40.5,29.94,NNW,338,0.0,0.0,97,0.00,,,0.00,WUHU216DAVISVP2,2013-10-30 09:12:00,
2013-10-30 04:17:00,41.3,40.5,29.94,NNW,338,0.0,0.0,97,0.00,,,0.00,WUHU216DAVISVP2,2013-10-30 09:17:00,
2013-10-30 04:22:00,41.3,40.5,29.94,NNW,338,0.0,0.0,97,0.00,,,0.00,WUHU216DAVISVP2,2013-10-30 09:22:00,
2013-10-30 04:27:00,41.3,40.5,29.94,NNW,338,0.0,0.0,97,0.00,,,0.00,WUHU216DAVISVP2,2013-10-30 09:27:00,
2013-10-30 04:32:00,41.3,40.5,29.94,NW,316,0.0,0.0,97,0.00,,,0.00,WUHU216DAVISVP2,2013-10-30 09:32:00,
2013-10-30 04:37:00,41.3,40.5,29.94,NW,316,0.0,0.0,97,0.00,,,0.00,WUHU216DAVISVP2,2013-10-30 09:37:00,
2013-10-30 04:42:00,41.3,40.5,29.94,NW,308,0.0,0.0,97,0.00,,,0.00,WUHU216DAVISVP2,2013-10-30 09:42:00,
2013-10-30 04:47:00,41.2,40.4,29.93,NW,308,0.0,0.0,97,0.00,,,0.00,WUHU216DAVISVP2,2013-10-30 09:47:00,
2013-10-30 04:52:00,41.2,40.4,29.93,NW,310,0.0,0.0,97,0.00,,,0.00,WUHU216DAVISVP2,2013-10-30 09:52:00,
2013-10-30 04:57:00,41.1,40.3,29.94,NW,310,1.0,3.0,97,0.00,,,0.00,WUHU216DAVISVP2,2013-10-30 09:57:00,
2013-10-30 05:02:00,41.1,40.3,29.94,NW,307,1.0,3.0,97,0.00,,,0.00,WUHU216DAVISVP2,2013-10-30 10:02:00,
2013-10-30 05:07:00,41.0,40.2,29.94,NW,320,0.0,4.0,97,0.00,,,0.00,WUHU216DAVISVP2,2013-10-30 10:07:00,
2013-10-30 05:12:00,41.0,40.2,29.94,NW,312,2.0,4.0,97,0.00,,,0.00,WUHU216DAVISVP2,2013-10-30 10:12:00,
2013-10-30 05:17:00,40.9,40.1,29.94,WNW,300,1.0,4.0,97,0.00,,,0.00,WUHU216DAVISVP2,2013-10-30 10:17:00,
2013-10-30 05:22:00,40.8,40.0,29.94,West,276,1.0,4.0,97,0.00,,,0.00,WUHU216DAVISVP2,2013-10-30 10:22:00,
2013-10-30 05:27:00,40.7,39.9,29.94,NW,309,0.0,4.0,97,0.00,,,0.00,WUHU216DAVISVP2,2013-10-30 10:27:00,
2013-10-30 05:32:00,40.6,39.8,29.94,NNW,330,1.0,4.0,97,0.00,,,0.00,WUHU216DAVISVP2,2013-10-30 10:32:00,
2013-10-30 05:37:00,40.5,39.7,29.94,WNW,299,1.0,4.0,97,0.00,,,0.00,WUHU216DAVISVP2,2013-10-30 10:37:00,
2013-10-30 05:42:00,40.4,39.6,29.93,WNW,303,1.0,4.0,97,0.00,,,0.00,WUHU216DAVISVP2,2013-10-30 10:42:00,
2013-10-30 05:47:00,40.4,39.6,29.93,NW,304,0.0,4.0,97,0.00,,,0.00,WUHU216DAVISVP2,2013-10-30 10:47:00,
2013-10-30 05:52:00,40.4,39.6,29.93,NW,304,0.0,4.0,97,0.00,,,0.00,WUHU216DAVISVP2,2013-10-30 10:52:00,
2013-10-30 05:57:00,40.4,39.6,29.93,NW,305,1.0,3.0,97,0.00,,,0.00,WUHU216DAVISVP2,2013-10-30 10:57:00,
2013-10-30 06:02:00,40.3,39.5,29.93,NW,305,0.0,1.0,97,0.00,,,0.00,WUHU216DAVISVP2,2013-10-30 11:02:00,
2013-10-30 06:07:00,40.3,39.5,29.93,WNW,300,0.0,1.0,97,0.00,,,0.00,WUHU216DAVISVP2,2013-10-30 11:07:00,
2013-10-30 06:12:00,40.3,39.5,29.93,WNW,300,0.0,1.0,97,0.00,,,0.00,WUHU216DAVISVP2,2013-10-30 11:12:00,
2013-10-30 06:17:00,40.3,39.5,29.92,WNW,300,0.0,1.0,97,0.01,,,0.01,WUHU216DAVISVP2,2013-10-30 11:17:00,
2013-10-30 06:22:00,40.2,39.4,29.92,WNW,301,0.0,1.0,97,0.01,,,0.01,WUHU216DAVISVP2,2013-10-30 11:22:00,
2013-10-30 06:27:00,40.2,39.4,29.91,WNW,300,0.0,1.0,97,0.01,,,0.01,WUHU216DAVISVP2,2013-10-30 11:27:00,
2013-10-30 06:32:00,40.1,39.3,29.91,WNW,302,1.0,1.0,97,0.01,,,0.01,WUHU216DAVISVP2,2013-10-30 11:32:00,
2013-10-30 06:37:00,40.1,39.3,29.91,WNW,295,0.0,3.0,97,0.01,,,0.01,WUHU216DAVISVP2,2013-10-30 11:37:00,
2013-10-30 06:42:00,40.0,39.2,29.90,NW,309,0.0,3.0,97,0.01,,,0.01,WUHU216DAVISVP2,2013-10-30 11:42:00,
2013-10-30 06:47:00,40.0,39.2,29.90,NNW,328,0.0,3.0,97,0.01,,,0.01,WUHU216DAVISVP2,2013-10-30 11:47:00,
2013-10-30 06:52:00,39.9,39.1,29.89,NNW,337,1.0,3.0,97,0.01,,,0.01,WUHU216DAVISVP2,2013-10-30 11:52:00,
2013-10-30 06:57:00,39.8,39.0,29.90,WNW,300,1.0,3.0,97,0.01,,,0.01,WUHU216DAVISVP2,2013-10-30 11:57:00,
2013-10-30 07:02:00,39.7,38.9,29.90,NW,326,1.0,3.0,97,0.01,,,0.01,WUHU216DAVISVP2,2013-10-30 12:02:00,
2013-10-30 07:07:00,39.7,38.9,29.91,WNW,302,0.0,3.0,97,0.01,,,0.01,WUHU216DAVISVP2,2013-10-30 12:07:00,
2013-10-30 07:12:00,39.6,38.8,29.92,WNW,284,3.0,3.0,97,0.01,,,0.01,WUHU216DAVISVP2,2013-10-30 12:12:00,
2013-10-30 07:17:00,39.6,38.8,29.92,WNW,297,0.0,3.0,97,0.00,,,0.01,WUHU216DAVISVP2,2013-10-30 12:17:00,
2013-10-30 07:22:00,39.6,38.8,29.91,NW,319,0.0,3.0,97,0.00,,,0.01,WUHU216DAVISVP2,2013-10-30 12:22:00,
2013-10-30 07:27:00,39.6,38.8,29.92,West,269,0.0,3.0,97,0.00,,,0.01,WUHU216DAVISVP2,2013-10-30 12:27:00,
2013-10-30 07:32:00,39.6,38.8,29.93,WNW,288,0.0,1.0,97,0.00,,,0.01,WUHU216DAVISVP2,2013-10-30 12:32:00,
2013-10-30 07:37:00,39.6,38.8,29.93,West,281,0.0,1.0,97,0.00,,,0.01,WUHU216DAVISVP2,2013-10-30 12:37:00,
2013-10-30 07:42:00,39.6,38.8,29.92,West,281,0.0,1.0,97,0.00,,,0.01,WUHU216DAVISVP2,2013-10-30 12:42:00,
2013-10-30 07:47:00,39.6,38.8,29.92,NNW,330,0.0,1.0,97,0.00,,,0.01,WUHU216DAVISVP2,2013-10-30 12:47:00,
2013-10-30 07:52:00,39.6,38.8,29.91,NW,324,0.0,1.0,97,0.00,,,0.01,WUHU216DAVISVP2,2013-10-30 12:52:00,
2013-10-30 07:57:00,39.6,38.8,29.92,NW,324,0.0,1.0,97,0.00,,,0.01,WUHU216DAVISVP2,2013-10-30 12:57:00,
2013-10-30 08:02:00,39.6,38.8,29.92,NW,323,0.0,1.0,97,0.00,,,0.01,WUHU216DAVISVP2,2013-10-30 13:02:00,
2013-10-30 08:07:00,39.7,38.9,29.93,NW,322,0.0,1.0,97,0.00,,,0.01,WUHU216DAVISVP2,2013-10-30 13:07:00,
2013-10-30 08:12:00,39.6,38.8,29.93,NW,322,0.0,0.0,97,0.00,,,0.01,WUHU216DAVISVP2,2013-10-30 13:12:00,
2013-10-30 08:17:00,39.7,38.9,29.92,NW,322,0.0,0.0,97,0.00,,,0.01,WUHU216DAVISVP2,2013-10-30 13:17:00,
2013-10-30 08:22:00,39.7,39.2,29.93,NW,322,0.0,0.0,98,0.00,,,0.01,WUHU216DAVISVP2,2013-10-30 13:22:00,
2013-10-30 08:27:00,39.7,39.2,29.92,ENE,75,1.0,1.0,98,0.00,,,0.01,WUHU216DAVISVP2,2013-10-30 13:27:00,
2013-10-30 08:32:00,39.8,39.3,29.92,ENE,75,0.0,1.0,98,0.00,,,0.01,WUHU216DAVISVP2,2013-10-30 13:32:00,
2013-10-30 08:37:00,39.9,39.4,29.91,ENE,76,1.0,3.0,98,0.00,,,0.01,WUHU216DAVISVP2,2013-10-30 13:37:00,
2013-10-30 08:42:00,39.9,39.4,29.90,East,95,0.0,4.0,98,0.00,,,0.01,WUHU216DAVISVP2,2013-10-30 13:42:00,
2013-10-30 08:47:00,40.0,39.5,29.89,East,84,2.0,6.0,98,0.00,,,0.01,WUHU216DAVISVP2,2013-10-30 13:47:00,
2013-10-30 08:52:00,40.0,39.5,29.86,NE,44,2.0,7.0,98,0.00,,,0.01,WUHU216DAVISVP2,2013-10-30 13:52:00,
2013-10-30 08:57:00,40.0,39.5,29.86,NE,36,1.0,7.0,98,0.00,,,0.01,WUHU216DAVISVP2,2013-10-30 13:57:00,
2013-10-30 09:02:00,40.0,39.5,29.84,East,99,3.0,7.0,98,0.00,,,0.01,WUHU216DAVISVP2,2013-10-30 14:02:00,
2013-10-30 09:07:00,40.1,39.6,29.87,NW,319,0.0,7.0,98,0.00,,,0.01,WUHU216DAVISVP2,2013-10-30 14:07:00,
2013-10-30 09:12:00,40.3,39.8,29.87,ENE,77,0.0,6.0,98,0.00,,,0.01,WUHU216DAVISVP2,2013-10-30 14:12:00,
2013-10-30 09:17:00,40.4,39.9,29.86,ENE,61,3.0,6.0,98,0.00,,,0.01,WUHU216DAVISVP2,2013-10-30 14:17:00,
2013-10-30 09:22:00,40.5,40.0,29.86,NNE,18,0.0,3.0,98,0.00,,,0.01,WUHU216DAVISVP2,2013-10-30 14:22:00,
2013-10-30 09:27:00,40.7,40.2,29.87,ENE,77,1.0,3.0,98,0.00,,,0.01,WUHU216DAVISVP2,2013-10-30 14:27:00,
2013-10-30 09:32:00,40.8,40.3,29.86,NNE,29,0.0,3.0,98,0.00,,,0.01,WUHU216DAVISVP2,2013-10-30 14:32:00,
2013-10-30 09:37:00,40.9,40.4,29.86,NNE,25,0.0,3.0,98,0.00,,,0.01,WUHU216DAVISVP2,2013-10-30 14:37:00,
2013-10-30 09:42:00,41.1,40.6,29.86,East,98,0.0,3.0,98,0.00,,,0.01,WUHU216DAVISVP2,2013-10-30 14:42:00,
2013-10-30 09:47:00,41.3,40.8,29.86,East,98,0.0,1.0,98,0.00,,,0.01,WUHU216DAVISVP2,2013-10-30 14:47:00,
2013-10-30 09:52:00,41.4,40.9,29.86,East,98,0.0,1.0,98,0.00,,,0.01,WUHU216DAVISVP2,2013-10-30 14:52:00,
2013-10-30 09:57:00,41.5,41.0,29.86,East,88,0.0,1.0,98,0.00,,,0.01,WUHU216DAVISVP2,2013-10-30 14:57:00,
2013-10-30 10:02:00,41.5,41.0,29.87,ENE,64,0.0,1.0,98,0.00,,,0.01,WUHU216DAVISVP2,2013-10-30 15:02:00,
2013-10-30 10:07:00,41.5,41.0,29.87,WNW,302,1.0,3.0,98,0.00,,,0.01,WUHU216DAVISVP2,2013-10-30 15:07:00,
2013-10-30 10:12:00,41.5,41.0,29.86,WNW,283,0.0,3.0,98,0.00,,,0.01,WUHU216DAVISVP2,2013-10-30 15:12:00,
2013-10-30 10:17:00,41.5,41.0,29.86,West,274,1.0,3.0,98,0.00,,,0.01,WUHU216DAVISVP2,2013-10-30 15:17:00,
2013-10-30 10:22:00,41.4,40.9,29.87,WNW,297,1.0,3.0,98,0.00,,,0.01,WUHU216DAVISVP2,2013-10-30 15:22:00,
2013-10-30 10:27:00,41.5,41.0,29.87,West,276,0.0,3.0,98,0.00,,,0.01,WUHU216DAVISVP2,2013-10-30 15:27:00,
2013-10-30 10:32:00,41.5,41.0,29.86,NW,312,0.0,3.0,98,0.00,,,0.01,WUHU216DAVISVP2,2013-10-30 15:32:00,
2013-10-30 10:37:00,41.4,40.9,29.86,NW,308,1.0,4.0,98,0.00,,,0.01,WUHU216DAVISVP2,2013-10-30 15:37:00,
2013-10-30 10:42:00,41.4,40.9,29.86,NW,316,1.0,4.0,98,0.00,,,0.01,WUHU216DAVISVP2,2013-10-30 15:42:00,
2013-10-30 10:47:00,41.3,40.8,29.86,NW,306,0.0,4.0,98,0.00,,,0.01,WUHU216DAVISVP2,2013-10-30 15:47:00,
2013-10-30 10:52:00,41.5,41.0,29.86,WSW,255,0.0,4.0,98,0.00,,,0.01,WUHU216DAVISVP2,2013-10-30 15:52:00,
2013-10-30 10:57:00,41.4,40.9,29.86,WNW,285,0.0,4.0,98,0.00,,,0.01,WUHU216DAVISVP2,2013-10-30 15:57:00,
2013-10-30 11:02:00,41.5,41.0,29.86,WNW,299,0.0,4.0,98,0.00,,,0.01,WUHU216DAVISVP2,2013-10-30 16:02:00,
2013-10-30 11:07:00,41.5,41.0,29.85,NNW,342,1.0,3.0,98,0.00,,,0.01,WUHU216DAVISVP2,2013-10-30 16:07:00,
2013-10-30 11:12:00,41.6,41.1,29.85,West,274,1.0,3.0,98,0.00,,,0.01,WUHU216DAVISVP2,2013-10-30 16:12:00,
2013-10-30 11:17:00,41.6,41.1,29.86,WNW,303,1.0,3.0,98,0.00,,,0.01,WUHU216DAVISVP2,2013-10-30 16:17:00,
2013-10-30 11:22:00,41.6,41.1,29.87,NNW,337,1.0,3.0,98,0.00,,,0.01,WUHU216DAVISVP2,2013-10-30 16:22:00,
2013-10-30 11:27:00,41.6,41.1,29.86,NW,314,0.0,3.0,98,0.00,,,0.01,WUHU216DAVISVP2,2013-10-30 16:27:00,
2013-10-30 11:32:00,41.7,41.2,29.87,NW,306,0.0,3.0,98,0.00,,,0.01,WUHU216DAVISVP2,2013-10-30 16:32:00,
2013-10-30 11:37:00,41.7,41.2,29.88,NW,308,1.0,3.0,98,0.00,,,0.01,WUHU216DAVISVP2,2013-10-30 16:37:00,
2013-10-30 11:42:00,41.6,41.1,29.88,WNW,289,3.0,6.0,98,0.00,,,0.01,WUHU216DAVISVP2,2013-10-30 16:42:00,
2013-10-30 11:47:00,41.7,41.2,29.89,WNW,288,1.0,6.0,98,0.00,,,0.01,WUHU216DAVISVP2,2013-10-30 16:47:00,
2013-10-30 11:52:00,41.7,41.2,29.89,WNW,300,0.0,6.0,98,0.00,,,0.01,WUHU216DAVISVP2,2013-10-30 16:52:00,
2013-10-30 11:57:00,41.8,41.3,29.89,NNW,333,0.0,6.0,98,0.00,,,0.01,WUHU216DAVISVP2,2013-10-30 16:57:00,
2013-10-30 12:02:00,41.7,41.2,29.89,WNW,299,1.0,3.0,98,0.00,,,0.01,WUHU216DAVISVP2,2013-10-30 17:02:00,
2013-10-30 12:07:00,41.7,41.2,29.89,NW,319,0.0,3.0,98,0.00,,,0.01,WUHU216DAVISVP2,2013-10-30 17:07:00,
2013-10-30 12:12:00,41.7,41.2,29.89,NW,314,3.0,3.0,98,0.00,,,0.01,WUHU216DAVISVP2,2013-10-30 17:12:00,
2013-10-30 12:17:00,41.7,41.2,29.88,NW,306,1.0,3.0,98,0.00,,,0.01,WUHU216DAVISVP2,2013-10-30 17:17:00,
2013-10-30 12:22:00,41.7,41.2,29.88,WNW,301,0.0,3.0,98,0.00,,,0.01,WUHU216DAVISVP2,2013-10-30 17:22:00,
2013-10-30 12:27:00,41.8,41.3,29.87,WNW,303,0.0,3.0,98,0.00,,,0.01,WUHU216DAVISVP2,2013-10-30 17:27:00,
2013-10-30 12:32:00,41.8,41.3,29.88,WNW,290,1.0,3.0,98,0.00,,,0.01,WUHU216DAVISVP2,2013-10-30 17:32:00,
2013-10-30 12:37:00,41.8,41.3,29.87,WNW,294,1.0,3.0,98,0.00,,,0.01,WUHU216DAVISVP2,2013-10-30 17:37:00,
2013-10-30 12:42:00,41.9,41.4,29.86,WNW,295,0.0,3.0,98,0.00,,,0.01,WUHU216DAVISVP2,2013-10-30 17:42:00,
2013-10-30 12:47:00,42.0,41.5,29.85,NNW,345,0.0,3.0,98,0.00,,,0.01,WUHU216DAVISVP2,2013-10-30 17:47:00,
2013-10-30 12:52:00,41.9,41.4,29.86,WNW,300,0.0,3.0,98,0.00,,,0.01,WUHU216DAVISVP2,2013-10-30 17:52:00,
2013-10-30 12:57:00,42.1,41.6,29.86,WNW,300,0.0,3.0,98,0.00,,,0.01,WUHU216DAVISVP2,2013-10-30 17:57:00,
2013-10-30 13:02:00,42.1,41.6,29.85,West,278,1.0,3.0,98,0.00,,,0.01,WUHU216DAVISVP2,2013-10-30 18:02:00,
2013-10-30 13:07:00,42.1,41.6,29.84,North,352,0.0,3.0,98,0.00,,,0.01,WUHU216DAVISVP2,2013-10-30 18:07:00,
2013-10-30 13:12:00,42.3,41.8,29.84,West,278,1.0,3.0,98,0.00,,,0.01,WUHU216DAVISVP2,2013-10-30 18:12:00,
2013-10-30 13:17:00,42.3,41.8,29.84,West,266,1.0,4.0,98,0.00,,,0.01,WUHU216DAVISVP2,2013-10-30 18:17:00,
2013-10-30 13:22:00,42.3,41.8,29.84,WSW,248,1.0,4.0,98,0.00,,,0.01,WUHU216DAVISVP2,2013-10-30 18:22:00,
2013-10-30 13:27:00,42.1,41.6,29.84,WSW,249,0.0,4.0,98,0.00,,,0.01,WUHU216DAVISVP2,2013-10-30 18:27:00,
2013-10-30 13:32:00,42.2,41.7,29.83,WSW,249,0.0,3.0,98,0.00,,,0.01,WUHU216DAVISVP2,2013-10-30 18:32:00,
2013-10-30 13:36:00,42.2,41.7,29.82,WNW,297,0.0,3.0,98,0.00,,,0.01,WUHU216DAVISVP2,2013-10-30 18:36:00,
2013-10-30 13:41:00,42.3,41.8,29.83,WSW,240,0.0,3.0,98,0.00,,,0.01,WUHU216DAVISVP2,2013-10-30 18:41:00,
2013-10-30 13:46:00,42.2,41.7,29.83,WNW,302,0.0,1.0,98,0.00,,,0.01,WUHU216DAVISVP2,2013-10-30 18:46:00,
2013-10-30 13:51:00,42.0,41.5,29.81,WNW,301,0.0,1.0,98,0.00,,,0.01,WUHU216DAVISVP2,2013-10-30 18:51:00,
2013-10-30 13:56:00,42.2,41.7,29.80,WNW,300,1.0,1.0,98,0.00,,,0.01,WUHU216DAVISVP2,2013-10-30 18:56:00,
2013-10-30 14:01:00,42.1,41.6,29.81,SSW,198,0.0,3.0,98,0.00,,,0.01,WUHU216DAVISVP2,2013-10-30 19:01:00,
2013-10-30 14:06:00,42.3,41.8,29.80,WNW,298,1.0,3.0,98,0.00,,,0.01,WUHU216DAVISVP2,2013-10-30 19:06:00,
2013-10-30 14:11:00,42.3,41.8,29.80,WSW,255,1.0,3.0,98,0.00,,,0.01,WUHU216DAVISVP2,2013-10-30 19:11:00,
2013-10-30 14:16:00,42.4,41.9,29.79,West,272,1.0,3.0,98,0.00,,,0.01,WUHU216DAVISVP2,2013-10-30 19:16:00,
2013-10-30 14:21:00,42.3,41.8,29.80,WSW,253,1.0,3.0,98,0.00,,,0.01,WUHU216DAVISVP2,2013-10-30 19:21:00,
2013-10-30 14:26:00,42.4,41.9,29.80,WNW,285,1.0,3.0,98,0.00,,,0.01,WUHU216DAVISVP2,2013-10-30 19:26:00,
2013-10-30 14:31:00,42.4,41.9,29.79,WSW,256,1.0,4.0,98,0.00,,,0.01,WUHU216DAVISVP2,2013-10-30 19:31:00,
2013-10-30 14:36:00,42.4,41.9,29.80,WNW,302,3.0,4.0,98,0.00,,,0.01,WUHU216DAVISVP2,2013-10-30 19:36:00,
2013-10-30 14:41:00,42.3,41.8,29.79,West,264,2.0,4.0,98,0.00,,,0.01,WUHU216DAVISVP2,2013-10-30 19:41:00,
2013-10-30 14:46:00,42.3,41.8,29.79,WSW,255,0.0,4.0,98,0.00,,,0.01,WUHU216DAVISVP2,2013-10-30 19:46:00,
2013-10-30 14:51:00,42.3,41.8,29.79,West,267,0.0,4.0,98,0.00,,,0.01,WUHU216DAVISVP2,2013-10-30 19:51:00,
2013-10-30 14:56:00,42.3,41.8,29.79,WSW,255,2.0,4.0,98,0.00,,,0.01,WUHU216DAVISVP2,2013-10-30 19:56:00,
2013-10-30 15:01:00,42.3,41.8,29.79,WSW,257,1.0,4.0,98,0.00,,,0.01,WUHU216DAVISVP2,2013-10-30 20:01:00,
2013-10-30 15:07:00,42.3,41.8,29.78,SW,222,1.0,6.0,98,0.00,,,0.01,WUHU216DAVISVP2,2013-10-30 20:07:00,
2013-10-30 15:12:00,42.2,41.7,29.78,WNW,287,2.0,6.0,98,0.00,,,0.01,WUHU216DAVISVP2,2013-10-30 20:12:00,
2013-10-30 15:17:00,42.2,41.7,29.78,SW,236,3.0,6.0,98,0.00,,,0.01,WUHU216DAVISVP2,2013-10-30 20:17:00,
2013-10-30 15:22:00,42.2,41.7,29.78,West,268,1.0,4.0,98,0.00,,,0.01,WUHU216DAVISVP2,2013-10-30 20:22:00,
2013-10-30 15:27:00,42.2,41.7,29.78,West,270,2.0,4.0,98,0.00,,,0.01,WUHU216DAVISVP2,2013-10-30 20:27:00,
2013-10-30 15:32:00,42.1,41.6,29.78,WNW,295,3.0,4.0,98,0.00,,,0.01,WUHU216DAVISVP2,2013-10-30 20:32:00,
2013-10-30 15:37:00,42.0,41.5,29.78,West,259,3.0,8.0,98,0.00,,,0.01,WUHU216DAVISVP2,2013-10-30 20:37:00,
2013-10-30 15:42:00,41.9,41.1,29.78,WNW,284,1.0,8.0,97,0.00,,,0.01,WUHU216DAVISVP2,2013-10-30 20:42:00,
2013-10-30 15:47:00,41.8,41.0,29.78,WNW,284,1.0,8.0,97,0.00,,,0.01,WUHU216DAVISVP2,2013-10-30 20:47:00,
2013-10-30 15:52:00,41.8,41.0,29.78,NW,316,4.0,8.0,97,0.00,,,0.01,WUHU216DAVISVP2,2013-10-30 20:52:00,
2013-10-30 15:57:00,41.8,41.0,29.78,WNW,284,3.0,4.0,97,0.00,,,0.01,WUHU216DAVISVP2,2013-10-30 20:57:00,
2013-10-30 16:02:00,41.8,41.0,29.78,West,259,1.0,4.0,97,0.00,,,0.01,WUHU216DAVISVP2,2013-10-30 21:02:00,
2013-10-30 16:07:00,41.7,40.9,29.78,NW,324,3.0,4.0,97,0.00,,,0.01,WUHU216DAVISVP2,2013-10-30 21:07:00,
2013-10-30 16:12:00,41.5,40.7,29.78,WSW,248,1.0,6.0,97,0.00,,,0.01,WUHU216DAVISVP2,2013-10-30 21:12:00,
2013-10-30 16:17:00,41.4,40.6,29.78,West,265,2.0,6.0,97,0.00,,,0.01,WUHU216DAVISVP2,2013-10-30 21:17:00,
2013-10-30 16:22:00,41.3,40.5,29.78,West,274,3.0,6.0,97,0.00,,,0.01,WUHU216DAVISVP2,2013-10-30 21:22:00,
2013-10-30 16:27:00,41.2,40.4,29.77,NW,314,1.0,7.0,97,0.00,,,0.01,WUHU216DAVISVP2,2013-10-30 21:27:00,
2013-10-30 16:32:00,41.3,40.5,29.77,WNW,299,3.0,7.0,97,0.00,,,0.01,WUHU216DAVISVP2,2013-10-30 21:32:00,
2013-10-30 16:37:00,41.2,40.4,29.77,SW,231,4.0,7.0,97,0.00,,,0.01,WUHU216DAVISVP2,2013-10-30 21:37:00,
2013-10-30 16:42:00,41.1,40.3,29.78,WSW,252,3.0,6.0,97,0.00,,,0.01,WUHU216DAVISVP2,2013-10-30 21:42:00,
2013-10-30 16:47:00,41.1,40.3,29.78,West,274,1.0,6.0,97,0.00,,,0.01,WUHU216DAVISVP2,2013-10-30 21:47:00,
2013-10-30 16:52:00,41.1,40.3,29.78,WSW,239,3.0,6.0,97,0.00,,,0.01,WUHU216DAVISVP2,2013-10-30 21:52:00,
2013-10-30 16:57:00,41.1,40.3,29.78,West,264,2.0,6.0,97,0.00,,,0.01,WUHU216DAVISVP2,2013-10-30 21:57:00,
2013-10-30 17:02:00,41.1,40.3,29.78,West,280,1.0,4.0,97,0.00,,,0.01,WUHU216DAVISVP2,2013-10-30 22:02:00,
2013-10-30 17:07:00,41.0,40.2,29.78,WNW,293,3.0,4.0,97,0.00,,,0.01,WUHU216DAVISVP2,2013-10-30 22:07:00,
2013-10-30 17:12:00,41.0,40.2,29.78,WSW,239,1.0,6.0,97,0.00,,,0.01,WUHU216DAVISVP2,2013-10-30 22:12:00,
2013-10-30 17:17:00,41.0,40.2,29.78,West,262,1.0,6.0,97,0.00,,,0.01,WUHU216DAVISVP2,2013-10-30 22:17:00,
2013-10-30 17:22:00,41.0,40.2,29.79,West,262,1.0,6.0,97,0.00,,,0.01,WUHU216DAVISVP2,2013-10-30 22:22:00,
2013-10-30 17:27:00,41.0,39.9,29.78,WSW,256,1.0,4.0,96,0.00,,,0.01,WUHU216DAVISVP2,2013-10-30 22:27:00,
2013-10-30 17:32:00,40.9,39.8,29.78,WSW,246,1.0,4.0,96,0.00,,,0.01,WUHU216DAVISVP2,2013-10-30 22:32:00,
2013-10-30 17:37:00,41.0,39.9,29.78,WSW,243,1.0,4.0,96,0.00,,,0.01,WUHU216DAVISVP2,2013-10-30 22:37:00,
2013-10-30 17:42:00,41.0,39.9,29.78,WSW,255,0.0,4.0,96,0.00,,,0.01,WUHU216DAVISVP2,2013-10-30 22:42:00,
2013-10-30 17:47:00,40.9,39.8,29.78,WSW,255,1.0,7.0,96,0.00,,,0.01,WUHU216DAVISVP2,2013-10-30 22:47:00,
2013-10-30 17:52:00,40.9,39.8,29.78,WSW,248,1.0,7.0,96,0.00,,,0.01,WUHU216DAVISVP2,2013-10-30 22:52:00,
2013-10-30 17:57:00,40.9,39.8,29.78,WSW,258,1.0,7.0,96,0.00,,,0.01,WUHU216DAVISVP2,2013-10-30 22:57:00,
2013-10-30 18:02:00,40.8,39.7,29.77,WNW,289,3.0,4.0,96,0.00,,,0.01,WUHU216DAVISVP2,2013-10-30 23:02:00,
2013-10-30 18:07:00,40.8,39.7,29.77,WNW,286,1.0,7.0,96,0.00,,,0.01,WUHU216DAVISVP2,2013-10-30 23:07:00,
2013-10-30 18:12:00,40.8,39.7,29.78,WNW,294,1.0,7.0,96,0.00,,,0.01,WUHU216DAVISVP2,2013-10-30 23:12:00,
2013-10-30 18:17:00,40.7,39.6,29.77,West,268,2.0,7.0,96,0.00,,,0.01,WUHU216DAVISVP2,2013-10-30 23:17:00,
2013-10-30 18:22:00,40.7,39.6,29.77,WNW,286,1.0,7.0,96,0.00,,,0.01,WUHU216DAVISVP2,2013-10-30 23:22:00,
2013-10-30 18:27:00,40.7,39.6,29.77,WNW,298,1.0,7.0,96,0.00,,,0.01,WUHU216DAVISVP2,2013-10-30 23:27:00,
2013-10-30 18:32:00,40.5,39.2,29.77,WNW,285,3.0,10.0,95,0.00,,,0.01,WUHU216DAVISVP2,2013-10-30 23:32:00,
2013-10-30 18:37:00,40.3,38.9,29.78,NW,316,4.0,10.0,95,0.00,,,0.01,WUHU216DAVISVP2,2013-10-30 23:37:00,
2013-10-30 18:42:00,40.2,38.8,29.78,West,274,2.0,10.0,95,0.00,,,0.01,WUHU216DAVISVP2,2013-10-30 23:42:00,
2013-10-30 18:47:00,40.1,38.7,29.78,WNW,293,2.0,10.0,95,0.00,,,0.01,WUHU216DAVISVP2,2013-10-30 23:47:00,
2013-10-30 18:52:00,40.0,38.6,29.78,West,279,4.0,10.0,95,0.00,,,0.01,WUHU216DAVISVP2,2013-10-30 23:52:00,
2013-10-30 18:57:00,39.9,38.8,29.78,WNW,286,1.0,10.0,96,0.00,,,0.01,WUHU216DAVISVP2,2013-10-30 23:57:00,
2013-10-30 19:02:00,39.8,38.8,29.78,WNW,289,2.0,10.0,96,0.00,,,0.01,WUHU216DAVISVP2,2013-10-31 00:02:00,
2013-10-30 19:07:00,39.7,38.7,29.78,WNW,300,2.0,10.0,96,0.00,,,0.01,WUHU216DAVISVP2,2013-10-31 00:07:00,
2013-10-30 19:12:00,39.6,38.6,29.78,WSW,251,3.0,8.0,96,0.00,,,0.01,WUHU216DAVISVP2,2013-10-31 00:12:00,
2013-10-30 19:17:00,39.6,38.6,29.78,NW,305,0.0,8.0,96,0.00,,,0.01,WUHU216DAVISVP2,2013-10-31 00:17:00,
2013-10-30 19:22:00,39.5,38.4,29.78,NW,316,1.0,8.0,96,0.00,,,0.01,WUHU216DAVISVP2,2013-10-31 00:22:00,
2013-10-30 19:27:00,39.5,38.4,29.78,WSW,257,3.0,6.0,96,0.00,,,0.01,WUHU216DAVISVP2,2013-10-31 00:27:00,
2013-10-30 19:32:00,39.5,38.2,29.78,WNW,291,2.0,6.0,95,0.00,,,0.01,WUHU216DAVISVP2,2013-10-31 00:32:00,
2013-10-30 19:37:00,39.4,38.1,29.78,West,278,2.0,7.0,95,0.00,,,0.01,WUHU216DAVISVP2,2013-10-31 00:37:00,
2013-10-30 19:42:00,39.4,38.0,29.78,WNW,282,2.0,7.0,95,0.00,,,0.01,WUHU216DAVISVP2,2013-10-31 00:42:00,
2013-10-30 19:47:00,39.3,37.9,29.78,West,269,0.0,7.0,95,0.00,,,0.01,WUHU216DAVISVP2,2013-10-31 00:47:00,
2013-10-30 19:52:00,39.3,37.9,29.78,West,273,3.0,7.0,95,0.00,,,0.01,WUHU216DAVISVP2,2013-10-31 00:52:00,
2013-10-30 19:57:00,39.3,37.9,29.78,NW,306,2.0,6.0,95,0.00,,,0.01,WUHU216DAVISVP2,2013-10-31 00:57:00,
2013-10-30 20:02:00,39.3,37.9,29.78,WNW,295,1.0,6.0,95,0.00,,,0.01,WUHU216DAVISVP2,2013-10-31 01:02:00,
2013-10-30 20:07:00,39.2,37.8,29.78,West,264,1.0,6.0,95,0.00,,,0.01,WUHU216DAVISVP2,2013-10-31 01:07:00,
2013-10-30 20:12:00,39.3,37.9,29.77,WSW,242,0.0,6.0,95,0.00,,,0.01,WUHU216DAVISVP2,2013-10-31 01:12:00,
2013-10-30 20:17:00,39.2,37.8,29.77,NW,317,2.0,8.0,95,0.00,,,0.01,WUHU216DAVISVP2,2013-10-31 01:17:00,
2013-10-30 20:22:00,39.1,37.7,29.77,WNW,293,3.0,8.0,95,0.00,,,0.01,WUHU216DAVISVP2,2013-10-31 01:22:00,
2013-10-30 20:27:00,39.1,37.8,29.77,West,259,1.0,8.0,95,0.00,,,0.01,WUHU216DAVISVP2,2013-10-31 01:27:00,
2013-10-30 20:32:00,39.0,37.4,29.77,West,275,4.0,8.0,94,0.00,,,0.01,WUHU216DAVISVP2,2013-10-31 01:32:00,
2013-10-30 20:37:00,39.0,37.4,29.77,NNW,338,3.0,8.0,94,0.00,,,0.01,WUHU216DAVISVP2,2013-10-31 01:37:00,
2013-10-30 20:42:00,39.0,37.6,29.77,West,273,1.0,7.0,95,0.00,,,0.01,WUHU216DAVISVP2,2013-10-31 01:42:00,
2013-10-30 20:47:00,39.0,37.6,29.77,WSW,238,3.0,7.0,95,0.00,,,0.01,WUHU216DAVISVP2,2013-10-31 01:47:00,
2013-10-30 20:52:00,38.9,37.5,29.76,WSW,257,1.0,7.0,95,0.00,,,0.01,WUHU216DAVISVP2,2013-10-31 01:52:00,
2013-10-30 20:57:00,38.9,37.5,29.76,WNW,294,3.0,7.0,95,0.00,,,0.01,WUHU216DAVISVP2,2013-10-31 01:57:00,
2013-10-30 21:02:00,38.8,37.4,29.76,West,269,1.0,7.0,95,0.00,,,0.01,WUHU216DAVISVP2,2013-10-31 02:02:00,
2013-10-30 21:07:00,38.7,37.3,29.76,WSW,253,3.0,7.0,95,0.00,,,0.01,WUHU216DAVISVP2,2013-10-31 02:07:00,
2013-10-30 21:12:00,38.7,37.3,29.76,West,266,3.0,7.0,95,0.00,,,0.01,WUHU216DAVISVP2,2013-10-31 02:12:00,
2013-10-30 21:17:00,38.7,37.3,29.76,WSW,258,3.0,7.0,95,0.00,,,0.01,WUHU216DAVISVP2,2013-10-31 02:17:00,
2013-10-30 21:22:00,38.7,37.3,29.76,West,280,1.0,7.0,95,0.00,,,0.01,WUHU216DAVISVP2,2013-10-31 02:22:00,
2013-10-30 21:27:00,38.7,37.3,29.76,West,279,2.0,7.0,95,0.00,,,0.01,WUHU216DAVISVP2,2013-10-31 02:27:00,
2013-10-30 21:32:00,38.7,37.1,29.76,WSW,244,4.0,8.0,94,0.00,,,0.01,WUHU216DAVISVP2,2013-10-31 02:32:00,
2013-10-30 21:37:00,38.7,37.1,29.76,WSW,245,4.0,10.0,94,0.00,,,0.01,WUHU216DAVISVP2,2013-10-31 02:37:00,
2013-10-30 21:42:00,38.6,37.0,29.76,NW,316,6.0,10.0,94,0.00,,,0.01,WUHU216DAVISVP2,2013-10-31 02:42:00,
2013-10-30 21:47:00,38.7,37.3,29.75,WNW,298,6.0,10.0,95,0.00,,,0.01,WUHU216DAVISVP2,2013-10-31 02:47:00,
2013-10-30 21:52:00,38.7,37.3,29.75,NW,311,6.0,10.0,95,0.00,,,0.01,WUHU216DAVISVP2,2013-10-31 02:52:00,
2013-10-30 21:57:00,38.7,37.3,29.75,WNW,290,1.0,8.0,95,0.00,,,0.01,WUHU216DAVISVP2,2013-10-31 02:57:00,
2013-10-30 22:00:00,38.6,37.2,29.76,SW,236,3.0,8.0,95,0.00,,,0.01,WUHU216DAVISVP2,2013-10-31 03:00:00,
2013-10-30 22:05:00,38.6,37.2,29.76,WNW,297,1.0,8.0,95,0.00,,,0.01,WUHU216DAVISVP2,2013-10-31 03:05:00,
2013-10-30 22:10:00,38.6,37.2,29.76,WNW,290,3.0,10.0,95,0.00,,,0.01,WUHU216DAVISVP2,2013-10-31 03:10:00,
2013-10-30 22:15:00,38.6,37.2,29.76,West,262,1.0,10.0,95,0.00,,,0.01,WUHU216DAVISVP2,2013-10-31 03:15:00,
2013-10-30 22:20:00,38.6,37.2,29.76,NW,314,4.0,10.0,95,0.00,,,0.01,WUHU216DAVISVP2,2013-10-31 03:20:00,
2013-10-30 22:25:00,38.5,37.1,29.76,West,270,3.0,10.0,95,0.00,,,0.01,WUHU216DAVISVP2,2013-10-31 03:25:00,
2013-10-30 22:30:00,38.5,37.2,29.76,West,276,2.0,6.0,95,0.00,,,0.01,WUHU216DAVISVP2,2013-10-31 03:30:00,
2013-10-30 22:35:00,38.5,37.2,29.75,West,274,1.0,7.0,95,0.00,,,0.01,WUHU216DAVISVP2,2013-10-31 03:35:00,
2013-10-30 22:40:00,38.4,37.1,29.75,WNW,289,0.0,7.0,95,0.00,,,0.01,WUHU216DAVISVP2,2013-10-31 03:40:00,
2013-10-30 22:45:00,38.3,37.0,29.75,West,271,1.0,7.0,95,0.00,,,0.01,WUHU216DAVISVP2,2013-10-31 03:45:00,
2013-10-30 22:50:00,38.3,37.0,29.75,West,276,1.0,4.0,95,0.00,,,0.01,WUHU216DAVISVP2,2013-10-31 03:50:00,
2013-10-30 22:55:00,38.2,36.9,29.75,WSW,246,2.0,4.0,95,0.00,,,0.01,WUHU216DAVISVP2,2013-10-31 03:55:00,
2013-10-30 23:00:00,38.1,36.8,29.75,West,271,1.0,6.0,95,0.00,,,0.01,WUHU216DAVISVP2,2013-10-31 04:00:00,
2013-10-30 23:01:00,38.1,36.8,29.75,West,272,1.0,6.0,95,0.00,,,0.01,WUHU216DAVISVP2,2013-10-31 04:01:00,
2013-10-30 23:06:00,38.1,36.8,29.75,West,269,3.0,6.0,95,0.00,,,0.01,WUHU216DAVISVP2,2013-10-31 04:06:00,
2013-10-30 23:11:00,38.1,36.8,29.75,WSW,248,1.0,8.0,95,0.00,,,0.01,WUHU216DAVISVP2,2013-10-31 04:11:00,
2013-10-30 23:16:00,38.1,36.8,29.75,WNW,282,3.0,8.0,95,0.00,,,0.01,WUHU216DAVISVP2,2013-10-31 04:16:00,
2013-10-30 23:21:00,38.0,36.4,29.75,WSW,257,3.0,8.0,94,0.00,,,0.01,WUHU216DAVISVP2,2013-10-31 04:21:00,
2013-10-30 23:26:00,38.0,36.4,29.75,WNW,282,4.0,13.0,94,0.00,,,0.01,WUHU216DAVISVP2,2013-10-31 04:26:00,
2013-10-30 23:31:00,38.0,36.2,29.75,WSW,251,1.0,13.0,93,0.00,,,0.01,WUHU216DAVISVP2,2013-10-31 04:31:00,
2013-10-30 23:36:00,38.0,36.2,29.75,WNW,284,2.0,13.0,93,0.00,,,0.01,WUHU216DAVISVP2,2013-10-31 04:36:00,
2013-10-30 23:41:00,38.0,36.1,29.74,NW,305,3.0,13.0,93,0.00,,,0.01,WUHU216DAVISVP2,2013-10-31 04:41:00,
2013-10-30 23:46:00,38.0,36.1,29.74,West,260,4.0,8.0,93,0.00,,,0.01,WUHU216DAVISVP2,2013-10-31 04:46:00,
2013-10-30 23:51:00,38.0,35.8,29.73,West,272,1.0,7.0,92,0.00,,,0.01,WUHU216DAVISVP2,2013-10-31 04:51:00,
2013-10-30 23:56:00,37.8,35.6,29.73,NW,310,2.0,7.0,92,0.00,,,0.01,WUHU216DAVISVP2,2013-10-31 04:56:00,